Regional Weather Roundup
Issued by NWS Little Rock, AR

Home | Current Version | Previous Version | Graphics & Text | Print | Product List | Glossary On
Versions: 1 2 3 4 5 6 7 8 9 10 11 12 13 14 15 16 17 18 19 20 21 22 23 24 25 26 27 28
000
ASUS44 KLZK 281005
RWRLZK

WEATHER ROUNDUP FOR ARKANSAS
NATIONAL WEATHER SERVICE LITTLE ROCK AR
500 AM CDT SUN AUG 28 2016

NOTE: "FAIR" INDICATES FEW OR NO CLOUDS BELOW 12,000 FEET WITH NO
SIGNIFICANT WEATHER AND/OR OBSTRUCTIONS TO VISIBILITY.

ARZ001-003-010-029-281100-
NORTHWEST ARKANSAS

CITY           SKY/WX    TMP DP  RH WIND       PRES   REMARKS
FAYETTEVILLE   CLOUDY    65  65 100 CALM      30.11R FOG
FORT SMITH     CLEAR     73  71  93 E5        30.06R
HARRISON       FOG       67  67 100 CALM      30.12S VSB 3/4
BENTONVILLE    CLEAR     72  66  83 SE5       30.11R
ROGERS         CLEAR     72  70  93 E3        30.12R
SILOAM SPGS    PTCLDY    70  63  78 CALM      30.12R
HIGHFILL       CLEAR     72  71  97 CALM      30.11R
$$

ARZ004-005-016-281100-
NORTH CENTRAL ARKANSAS

CITY           SKY/WX    TMP DP  RH WIND       PRES   REMARKS
BATESVILLE     PTCLDY    72  70  94 CALM      30.08S
FLIPPIN        CLOUDY    72  66  83 CALM      30.08R VSB 1/4
MTN HOME       PTCLDY    71  71 100 E3        30.10S FOG
$$

ARZ040-041-281100-
WEST CENTRAL ARKANSAS

CITY           SKY/WX    TMP DP  RH WIND       PRES   REMARKS
MENA           MOCLDY    70  68  94 CALM      30.09R
MOUNT IDA      MOCLDY    70  69  97 CALM      30.05  FOG
$$

ARZ009-017-025-026-028-281100-
NORTHEAST ARKANSAS

CITY           SKY/WX    TMP DP  RH WIND       PRES   REMARKS
CORNING          N/A     73  73 100 N3        30.08F
JONESBORO      PTCLDY    74  71  91 NE6       30.06S
NEWPORT        PTCLDY    73  72  96 NE5       30.07R
WALNUT RIDGE   CLEAR     73  70  88 N5        30.07S
BLYTHEVILLE    CLEAR     73  71  93 CALM      30.07S
$$

ARZ022-023-033-042-044-281100-
CENTRAL ARKANSAS

CITY           SKY/WX    TMP DP  RH WIND       PRES   REMARKS
LITTLE ROCK    PTCLDY    78  72  81 NE3       30.04S
N LITTLE ROCK    N/A     75  71  88 E3        30.02S
JACKSONVILLE   CLEAR     73  73  99 CALM      30.04S
SEARCY         CLEAR     74  73  97 N3        30.07R
HOT SPRINGS    MOCLDY    74  71  91 CALM      30.06R
RUSSELLVILLE   PTCLDY    72  72 100 CALM      30.06R FOG
$$

ARZ036-281100-
EAST ARKANSAS

CITY           SKY/WX    TMP DP  RH WIND       PRES   REMARKS
WEST MEMPHIS   CLEAR     75  72  90 NE3       30.04S
$$

ARZ050-053-066-070-073-281100-
SOUTHWEST ARKANSAS

CITY           SKY/WX    TMP DP  RH WIND       PRES   REMARKS
ARKADELPHIA    FAIR      75  73  93 N3        30.04R
TEXARKANA      CLEAR     74  72  93 CALM      30.03S
EL DORADO      CLOUDY    74  73  97 NW6       30.02S
DE QUEEN       FOG       71  71 100 CALM      30.04R VSB 1/2
$$

ARZ056-057-069-281100-
SOUTHEAST ARKANSAS

CITY           SKY/WX    TMP DP  RH WIND       PRES   REMARKS
PINE BLUFF     CLOUDY    75  73  93 CALM      30.02S
STUTTGART      CLEAR     75  72  88 NE6       30.03S
MONTICELLO     CLOUDY    78  74  87 CALM      30.01S

$$






USA.gov is the U.S. government's official web portal to all federal, state and local government web resources and services.